Quincy, IL

7:02 AM CDT on September 25, 2017 (GMT -0500)
Quincy Regional-Baldwin

Weather History for KUIN - September, 2012

Change the Weather History Date:

Tuesday, September 4, 2012

  Actual Average Record
Temperature  
Mean Temperature 83 °F 71 °F  
Max Temperature 92 °F 82 °F 105 °F (1913)
Min Temperature 73 °F 60 °F 41 °F (1974)
Degree Days  
Heating Degree Days 0 1  
Month to date heating degree days 0 3  
Since 1 July heating degree days 0 8  
Cooling Degree Days 18 7  
Month to date cooling degree days 57 28  
Year to date cooling degree days 1504 981  
Growing Degree Days 32 (Base 50)    
Moisture  
Dew Point 68 °F    
Average Humidity 67    
Maximum Humidity 93    
Minimum Humidity 41    
Precipitation  
Precipitation 0.45 in 0.11 in 3.31 in (1926)
Month to date precipitation 1.47 0.44  
Year to date precipitation 17.10 26.19  
Sea Level Pressure  
Sea Level Pressure 29.85 in    
Wind  
Wind Speed 4 mph (SSW)    
Max Wind Speed 12 mph    
Max Gust Speed 15 mph    
Visibility 9 miles    
Events      
T = Trace of Precipitation, MM = Missing Value Source: NWS Daily Summary

Daily Weather History Graph

Daily Weather History Graph

Search for Another Location

Airport or City:

Trip Planner

Search our weather history database for the weather conditions in past years. The results will help you decide how hot, cold, wet, or windy it might be!

Date:

Astronomy

Sep. 04, 2012 Rise Set
Actual Time 6:35 AM CDT 7:30 PM CDT
Civil Twilight 6:08 AM CDT 7:58 PM CDT
Nautical Twilight 5:35 AM CDT 8:30 PM CDT
Astronomical Twilight 5:01 AM CDT 9:04 PM CDT
Moon 9:24 PM CDT (9/4) 10:42 AM CDT (9/4)
Length of Visible Light 13h 49m
Length of Day
12h 54m
Waning Gibbous, 83% of the Moon is Illuminated
Sep 4
Waning Gibbous
Sep 8
Last Quarter
Sep 15
New
Sep 22
First Quarter
Sep 29
Full

Hourly Weather History & Observations

Time (CDT) Temp. Heat Index Dew Point Humidity Pressure Visibility Wind Dir Wind Speed Gust Speed Precip Events Conditions
12:54 AM 75.0 °F - 70.0 °F 84% 29.88 in 10.0 mi SSW 3.5 mph - 0.02 in   Clear
1:54 AM 75.0 °F - 70.0 °F 84% 29.87 in 10.0 mi South 6.9 mph - 0.01 in   Clear
2:54 AM 75.0 °F - 70.0 °F 84% 29.88 in 10.0 mi SSW 3.5 mph - 0.01 in   Clear
3:54 AM 75.9 °F - 70.0 °F 82% 29.83 in 10.0 mi Calm Calm - 0.01 in   Clear
4:54 AM 73.0 °F - 70.0 °F 90% 29.84 in 10.0 mi Calm Calm - 0.02 in   Clear
5:54 AM 73.9 °F - 70.0 °F 87% 29.88 in 10.0 mi Calm Calm - 0.01 in   Scattered Clouds
6:54 AM 73.0 °F - 70.0 °F 90% 29.90 in 8.0 mi SSW 4.6 mph - 0.01 in   Clear
7:54 AM 73.9 °F - 71.1 °F 91% 29.90 in 10.0 mi Calm Calm - 0.01 in   Scattered Clouds
8:54 AM 75.9 °F - 71.1 °F 85% 29.90 in 10.0 mi South 4.6 mph - 0.01 in   Clear
9:54 AM 78.8 °F - 69.8 °F 74% 29.92 in 10.0 mi SW 6.9 mph - N/A   Clear
10:54 AM 82.0 °F 84.9 °F 68.0 °F 62% 29.90 in 10.0 mi SW 8.1 mph - N/A   Clear
11:54 AM 84.9 °F 87.1 °F 66.0 °F 53% 29.88 in 10.0 mi WSW 5.8 mph - N/A   Clear
12:54 PM 89.1 °F 91.0 °F 64.9 °F 45% 29.86 in 10.0 mi SW 5.8 mph - N/A   Clear
1:54 PM 89.1 °F 91.3 °F 66.0 °F 46% 29.84 in 10.0 mi Calm Calm - N/A   Clear
2:54 PM 91.0 °F 93.0 °F 64.9 °F 42% 29.82 in 10.0 mi Calm Calm - N/A   Clear
3:54 PM 91.9 °F 94.1 °F 64.9 °F 41% 29.82 in 10.0 mi Calm Calm - N/A   Clear
4:54 PM 90.0 °F 92.4 °F 66.0 °F 45% 29.82 in 10.0 mi WSW 3.5 mph - N/A   Clear
5:13 PM 91.4 °F 95.4 °F 68.0 °F 46% 29.84 in 1.8 mi WSW 3.5 mph - N/A   Haze
5:26 PM 91.4 °F 94.0 °F 66.2 °F 43% 29.84 in 10.0 mi Calm Calm - N/A   Clear
5:37 PM 91.4 °F 94.0 °F 66.2 °F 43% 29.84 in 2.5 mi Calm Calm - N/A   Haze
5:46 PM 91.4 °F 94.0 °F 66.2 °F 43% 29.84 in 10.0 mi Calm Calm - N/A   Clear
5:54 PM 90.0 °F 92.4 °F 66.0 °F 45% 29.82 in 10.0 mi Calm Calm - N/A   Clear
6:54 PM 87.1 °F 90.6 °F 68.0 °F 53% 29.81 in 10.0 mi ESE 5.8 mph - N/A   Clear
7:54 PM 82.0 °F 85.5 °F 69.1 °F 65% 29.81 in 10.0 mi SSE 3.5 mph - N/A   Clear
8:54 PM 81.0 °F 84.1 °F 69.1 °F 67% 29.81 in 10.0 mi South 6.9 mph - N/A   Clear
9:54 PM 80.6 °F 83.9 °F 69.8 °F 70% 29.83 in 10.0 mi South 6.9 mph - N/A   Clear
10:54 PM 78.1 °F - 69.1 °F 74% 29.81 in 10.0 mi SSE 6.9 mph - N/A   Clear
11:54 PM 77.0 °F - 69.1 °F 76% 29.79 in 10.0 mi SSE 6.9 mph - N/A   Clear